Location: Zilina
(49.2170°N, 18.7330°E)
Time: 10:42:24
(UTC+02:00)

ISS - Pass Details

Date: 25 March 2019
Orbit: 408 x 410 km, 51.6° (Epoch: 25 April)

Event Time Altitude Azimuth Distance (km) Brightness Sun altitude
Rises 20:13:36 0° 262° (W) 2,333 0.9 -20.8°
Reaches altitude 10° 20:15:42 10° 265° (W) 1,472 -0.2 -21.1°
Enters shadow 20:18:44 61° 320° (NW) 467 -3.4 -21.5°
